Weather History for Gillette, WY

Change the Weather History Date:

Monday, March 4, 2013

  Actual Average Record
Temperature  
Mean Temperature 21 °F 32 °F  
Max Temperature 28 °F 43 °F 63 °F (1950)
Min Temperature 14 °F 20 °F -15 °F (1960)
Degree Days  
Heating Degree Days 44 33  
Month to date heating degree days 120 135  
Since 1 July heating degree days 5243 5543  
Cooling Degree Days 0 0  
Month to date cooling degree days 0 0  
Year to date cooling degree days 0 0  
Moisture  
Dew Point 13 °F    
Average Humidity 70    
Maximum Humidity 80    
Minimum Humidity 60    
Precipitation  
Precipitation T in 0.03 in 0.20 in (1931)
Month to date precipitation 0.01 0.09  
Year to date precipitation 1.14 0.87  
Sea Level Pressure  
Sea Level Pressure 30.06 in    
Wind  
Wind Speed 24 mph (NW)    
Max Wind Speed 35 mph    
Max Gust Speed 51 mph    
Visibility 5 miles    
Events Fog , Snow    
T = Trace of Precipitation, MM = Missing Value Source: NWS Daily Summary

Daily Weather History Graph

Daily Weather History Graph

Search for Another Location

Airport:

Trip Planner

Search our weather history database for the weather conditions in past years. The results will help you decide how hot, cold, wet, or windy it might be!

Date:

Astronomy

Mar. 04, 2013 Rise Set
Actual Time 6:33 AM MST 5:54 PM MST
Civil Twilight 6:04 AM MST 6:23 PM MST
Nautical Twilight 5:31 AM MST 6:57 PM MST
Astronomical Twilight 4:57 AM MST 7:31 PM MST
Moon 12:55 AM MST (3/4) 10:28 AM MST (3/4)
Length of Visible Light 12h 19m
Length of Day
11h 20m
Waning Gibbous, 51% of the Moon is Illuminated
Mar 4
Waning Gibbous
Mar 4
Last Quarter
Mar 11
New
Mar 19
First Quarter
Mar 27
Full

Hourly Weather History & Observations

Time (MST) Temp. Windchill Dew Point Humidity Pressure Visibility Wind Dir Wind Speed Gust Speed Precip Events Conditions
12:53 AM 28.0 °F 19.3 °F 21.9 °F 78% 29.80 in 10.0 mi WNW 9.2 mph - N/A   Overcast
1:53 AM 28.0 °F 18.6 °F 19.0 °F 69% 29.79 in 10.0 mi NW 10.4 mph - N/A   Overcast
2:53 AM 27.0 °F 11.9 °F 16.0 °F 63% 29.80 in 10.0 mi NW 25.3 mph 32.2 mph N/A   Mostly Cloudy
3:53 AM 24.1 °F 6.4 °F 12.0 °F 60% 29.81 in 10.0 mi NW 32.2 mph 41.4 mph N/A   Partly Cloudy
4:53 AM 21.9 °F 4.5 °F 10.9 °F 63% 29.82 in 10.0 mi NW 27.6 mph 34.5 mph N/A   Clear
5:53 AM 19.9 °F 1.5 °F 10.9 °F 68% 29.89 in 10.0 mi WNW 28.8 mph 41.4 mph N/A   Clear
6:53 AM 19.0 °F 0.0 °F 10.0 °F 68% 29.95 in 10.0 mi NW 29.9 mph 36.8 mph N/A   Clear
7:41 AM 19.4 °F 1.1 °F 10.4 °F 68% 29.86 in 10.0 mi WNW 27.6 mph 38.0 mph N/A   Mostly Cloudy
7:53 AM 19.9 °F 1.5 °F 10.9 °F 68% 29.98 in 10.0 mi WNW 28.8 mph 38.0 mph N/A   Overcast
8:42 AM 19.4 °F 2.1 °F 12.2 °F 74% 29.89 in 1.5 mi NW 24.2 mph 31.1 mph 0.00 in Snow Light Snow
8:49 AM 19.4 °F 1.8 °F 15.8 °F 86% 29.90 in 0.5 mi NW 25.3 mph 31.1 mph 0.00 in Fog , Snow Snow
8:53 AM 19.0 °F 0.6 °F 14.0 °F 81% 30.01 in 0.8 mi WNW 27.6 mph 33.4 mph 0.00 in Snow Light Snow
9:03 AM 19.4 °F 1.4 °F 15.8 °F 86% 29.89 in 0.5 mi NW 26.5 mph 32.2 mph 0.00 in Fog , Snow Snow
9:16 AM 19.4 °F 1.8 °F 12.2 °F 74% 29.90 in 1.0 mi WNW 25.3 mph 41.4 mph 0.00 in Snow Light Snow
9:29 AM 19.4 °F -0.8 °F 10.4 °F 68% 29.90 in 2.5 mi NW 35.7 mph 42.6 mph 0.00 in Snow Light Snow
9:36 AM 19.4 °F -0.6 °F 10.4 °F 68% 29.90 in 9.0 mi NW 34.5 mph 43.7 mph 0.00 in   Overcast
9:53 AM 19.9 °F 2.2 °F 12.9 °F 74% 30.04 in 7.0 mi NNW 26.5 mph 42.6 mph 0.00 in   Overcast
10:18 AM 19.4 °F 1.1 °F 12.2 °F 74% 29.92 in 1.8 mi NW 27.6 mph 36.8 mph 0.00 in Snow Light Snow
10:34 AM 17.6 °F -3.1 °F 12.2 °F 79% 29.94 in 0.8 mi NNW 34.5 mph 42.6 mph N/A Snow Light Snow
10:42 AM 17.6 °F -3.6 °F 12.2 °F 79% 29.93 in 1.5 mi NW 36.8 mph 44.9 mph 0.00 in Snow Light Snow
10:53 AM 18.0 °F -1.7 °F 12.9 °F 81% 30.07 in 1.2 mi NW 31.1 mph 43.7 mph 0.00 in Snow Light Snow
11:00 AM 17.6 °F -2.8 °F 12.2 °F 79% 29.94 in 1.0 mi NW 33.4 mph 41.4 mph 0.00 in Snow Light Snow
11:25 AM 19.4 °F -0.0 °F 12.2 °F 74% 29.96 in 2.5 mi NNW 32.2 mph 44.9 mph 0.00 in Snow Light Snow
11:53 AM 19.0 °F 1.0 °F 12.9 °F 77% 30.09 in 1.5 mi NW 26.5 mph 40.3 mph 0.00 in Snow Light Snow
12:04 PM 17.6 °F -2.8 °F 12.2 °F 79% 29.98 in 0.5 mi NW 33.4 mph 44.9 mph 0.00 in Snow Snow
12:14 PM 19.4 °F 1.1 °F 14.0 °F 80% 29.98 in 1.0 mi NW 27.6 mph 39.1 mph 0.00 in Snow Light Snow
12:41 PM 19.4 °F 0.2 °F 12.2 °F 74% 29.99 in 3.0 mi NW 31.1 mph 42.6 mph 0.00 in Snow Light Snow
12:53 PM 19.9 °F 0.2 °F 12.9 °F 74% 30.11 in 4.0 mi NW 34.5 mph 41.4 mph 0.00 in Snow Light Snow
1:11 PM 21.2 °F - 12.2 °F 68% 30.00 in 10.0 mi North - - 0.00 in   Overcast
1:18 PM 19.4 °F -0.3 °F 12.2 °F 74% 29.99 in 0.8 mi WNW 33.4 mph 40.3 mph 0.00 in   Haze
1:31 PM 19.4 °F -0.6 °F 12.2 °F 74% 30.00 in - NW 34.5 mph 44.9 mph 0.00 in   Unknown
1:40 PM 19.4 °F -0.3 °F 12.2 °F 74% 30.01 in 1.8 mi NW 33.4 mph 42.6 mph 0.00 in Snow Light Snow
1:53 PM 19.9 °F 2.5 °F 14.0 °F 78% 30.14 in 1.5 mi NW 25.3 mph 40.3 mph 0.00 in Snow Light Snow
1:59 PM 19.4 °F -0.0 °F 14.0 °F 80% 30.03 in 2.0 mi NW 32.2 mph 39.1 mph 0.00 in Snow Light Snow
2:07 PM 19.4 °F 1.4 °F 14.0 °F 80% 30.03 in 2.0 mi NW 26.5 mph 38.0 mph 0.00 in   Haze
2:14 PM 19.4 °F 0.8 °F 14.0 °F 80% 30.03 in 1.5 mi NW 28.8 mph 38.0 mph 0.00 in Snow Light Snow
2:28 PM 21.2 °F 2.7 °F 14.0 °F 74% 30.04 in 3.0 mi NW 31.1 mph 41.4 mph 0.00 in Snow Light Snow
2:34 PM 19.4 °F -0.6 °F 14.0 °F 80% 30.05 in 2.5 mi NW 34.5 mph 41.4 mph 0.00 in Snow Light Snow
2:53 PM 19.9 °F 0.2 °F 14.0 °F 78% 30.18 in 1.8 mi NW 34.5 mph 41.4 mph 0.00 in Snow Light Snow
3:05 PM 21.2 °F - 14.0 °F 74% 30.06 in 2.5 mi North - - 0.00 in Snow Light Snow
3:25 PM 19.4 °F -0.0 °F 14.0 °F 80% 30.06 in 3.0 mi NW 32.2 mph 41.4 mph 0.00 in Snow Light Snow
3:32 PM 19.4 °F 1.1 °F 14.0 °F 80% 30.07 in 2.5 mi NW 27.6 mph 39.1 mph 0.00 in Snow Light Snow
3:36 PM 19.4 °F -0.0 °F 12.2 °F 74% 30.08 in 3.0 mi NW 32.2 mph 40.3 mph 0.00 in Snow Light Snow
3:44 PM 19.4 °F 0.5 °F 14.0 °F 80% 30.09 in 1.8 mi NW 29.9 mph 38.0 mph 0.00 in Snow Light Snow
3:53 PM 19.0 °F 2.4 °F 14.0 °F 81% 30.24 in 1.8 mi NW 21.9 mph 39.1 mph 0.00 in Snow Light Snow
4:06 PM 19.4 °F 0.5 °F 12.2 °F 74% 30.10 in 3.0 mi NW 29.9 mph 34.5 mph 0.00 in Snow Light Snow
4:53 PM 19.0 °F 1.3 °F 12.0 °F 74% 30.27 in 6.0 mi NW 25.3 mph 33.4 mph 0.00 in   Haze
5:06 PM 19.4 °F 2.1 °F 12.2 °F 74% 30.14 in 9.0 mi NW 24.2 mph 33.4 mph N/A   Overcast
5:14 PM 17.6 °F -1.0 °F 12.2 °F 79% 30.14 in 1.8 mi NW 26.5 mph 32.2 mph 0.00 in Snow Light Snow
5:27 PM 17.6 °F 1.7 °F 14.0 °F 86% 30.15 in 3.0 mi NW 18.4 mph 27.6 mph 0.00 in Snow Light Snow
5:34 PM 17.6 °F -1.3 °F 12.2 °F 79% 30.15 in 2.5 mi NW 27.6 mph 35.7 mph 0.00 in Snow Light Snow
5:50 PM 17.6 °F -0.6 °F 12.2 °F 79% 30.16 in 4.0 mi NW 25.3 mph 31.1 mph 0.00 in Snow Light Snow
5:53 PM 18.0 °F -0.5 °F 12.9 °F 81% 30.33 in 5.0 mi NW 26.5 mph - 0.00 in   Haze
6:05 PM 17.6 °F -0.3 °F 12.2 °F 79% 30.17 in 10.0 mi NW 24.2 mph 33.4 mph N/A   Overcast
6:53 PM 17.1 °F -2.4 °F 10.0 °F 74% 30.35 in 10.0 mi NW 28.8 mph 36.8 mph 0.00 in   Mostly Cloudy
7:10 PM 17.6 °F -0.3 °F 10.4 °F 73% 30.19 in 10.0 mi NW 24.2 mph 33.4 mph N/A   Overcast
7:30 PM 15.8 °F -1.5 °F 10.4 °F 79% 30.19 in 7.0 mi NW 20.7 mph 29.9 mph 0.00 in Snow Light Snow
7:53 PM 15.1 °F -1.6 °F 10.9 °F 84% 30.38 in 10.0 mi NW 18.4 mph - 0.00 in   Mostly Cloudy
8:05 PM 15.8 °F 0.9 °F 10.4 °F 79% 30.21 in 10.0 mi NW 15.0 mph - N/A   Partly Cloudy
8:53 PM 14.0 °F -2.0 °F 9.0 °F 80% 30.40 in 10.0 mi NW 16.1 mph 25.3 mph N/A   Scattered Clouds
9:01 PM 15.8 °F -0.2 °F 10.4 °F 79% 30.23 in 10.0 mi NW 17.3 mph - N/A   Mostly Cloudy
9:53 PM 15.1 °F 1.1 °F 10.9 °F 84% 30.42 in 7.0 mi NW 12.7 mph - 0.00 in Snow Light Snow
10:53 PM 14.0 °F 1.2 °F 10.9 °F 88% 30.44 in 7.0 mi NNW 10.4 mph - 0.00 in   Overcast